Location: Bridgewater
(44.3670°N, 64.5170°W)
Time: 05:26:12
(UTC-03:00)

Amateur Radio Satellites - All Passes

Search period start: 25 April 2014 04:56
Search period end: 26 April 2014 04:56
Location: Bridgewater, 44.3670°N, 64.5170°W

Satellite Date Start Highest point End Downlink Frequencies (MHz)
Time Altitude Azimuth
AO-Echo 25 Apr 04:58:14 05:01:48 21° 297° (WNW) 05:05:19 ?
Uribyol 2 25 Apr 05:00:22 05:04:01 20° 299° (WNW) 05:07:39 436.500 FM
TMSAT-1 25 Apr 05:13:54 05:19:06 57° 289° (WNW) 05:24:16 436.925 FM
Uosat F 25 Apr 05:20:51 05:25:51 65° 102° (ESE) 05:30:48 435.120 FM
JAS-1B 25 Apr 05:36:12 05:41:53 80° 287° (WNW) 05:47:58 435.800 - 435.900 CW/SSB
RS-15 25 Apr 05:47:41 05:57:57 42° 109° (ESE) 06:07:55 29.354 - 29.394 USB, Beacon 29.352 USB
Gurwin Techsat 1B 25 Apr 06:11:05 06:14:07 16° 302° (WNW) 06:17:08 435.225 FM
MaSat-1 25 Apr 06:18:10 06:21:14 78° 244° (WSW) 06:24:55 437.345 MHz
AO-7 25 Apr 06:28:44 06:37:04 80° 291° (WNW) 06:45:24 29.400 - 29.500 MHz
AO-40 25 Apr 06:36:27 10:44:11 27° 151° (SSE) 12:25:21 Beacon 2401.320
PCSat 25 Apr 06:41:32 06:43:50 13° 30° (NNE) 06:46:08 145.825 MHz
KITSAT 1 25 Apr 06:49:20 06:53:52 16° 354° (N) 06:58:24 435.175 FM
STRAND 1 25 Apr 06:50:06 06:55:09 65° 72° (ENE) 07:00:13 ?
Uosat F 25 Apr 07:00:50 07:04:08 18° 300° (WNW) 07:07:25 435.120 FM
Hamsat 25 Apr 07:20:36 07:24:53 53° 100° (E) 07:29:10 145.90 MHz
JAS-2 25 Apr 07:27:10 07:31:43 25° 95° (E) 07:36:39 435.800 - 435.900 CW/SSB, 435.910 FM
JAS-1B 25 Apr 07:29:33 07:31:43 12° 306° (NW) 07:33:55 435.800 - 435.900 CW/SSB
Sapphire 25 Apr 07:39:24 07:43:50 25° 43° (NE) 07:48:14 437.095 MHz 1200 baud AX-25 AFSK
SO-67 25 Apr 07:48:38 07:51:06 18° 93° (E) 07:53:32 435.3500 MHz FM
RS-15 25 Apr 07:58:45 08:09:52 63° 312° (NW) 08:20:45 29.354 - 29.394 USB, Beacon 29.352 USB
AO-7 25 Apr 08:22:55 08:28:39 21° 312° (NW) 08:34:25 29.400 - 29.500 MHz
PCSat 25 Apr 08:23:19 08:28:37 50° 53° (NE) 08:33:52 145.825 MHz
STRAND 1 25 Apr 08:31:36 08:34:48 17° 269° (W) 08:38:00 ?
KITSAT 1 25 Apr 08:47:03 08:52:59 21° 25° (NNE) 08:58:53 435.175 FM
Hamsat 25 Apr 08:57:41 09:00:28 17° 297° (WNW) 09:03:15 145.90 MHz
JAS-2 25 Apr 09:11:42 09:17:02 51° 289° (WNW) 09:22:57 435.800 - 435.900 CW/SSB, 435.910 FM
SO-67 25 Apr 09:21:14 09:24:17 28° 289° (WNW) 09:27:20 435.3500 MHz FM
Sapphire 25 Apr 09:22:20 09:27:43 64° 243° (WSW) 09:33:02 437.095 MHz 1200 baud AX-25 AFSK
Saudisat 1A 25 Apr 09:53:44 09:57:55 41° 118° (ESE) 10:02:07 436.775 MHz
HO-68 25 Apr 09:54:39 10:01:16 38° 97° (E) 10:07:50 435.675 MHz FM
PCSat 25 Apr 10:07:17 10:11:44 26° 251° (WSW) 10:16:10 145.825 MHz
RS-15 25 Apr 10:15:45 10:24:56 29° 343° (NNW) 10:34:02 29.354 - 29.394 USB, Beacon 29.352 USB
KITSAT 1 25 Apr 10:42:17 10:50:18 59° 51° (NE) 10:58:14 435.175 FM
Oscar 11 25 Apr 10:52:26 10:56:41 48° 99° (E) 11:00:55 145.825 FM, Beacon 2401.500 USB
FUNcube-1 25 Apr 11:01:45 11:05:02 21° 93° (E) 11:08:21 145.950 - 145.970 MHz USB
Saudisat 1A 25 Apr 11:33:46 11:37:39 28° 317° (NW) 11:41:32 436.775 MHz
HO-68 25 Apr 11:42:17 11:49:03 46° 296° (WNW) 11:55:48 435.675 MHz FM
Oscar 10/S400 25 Apr 11:49:49 13:25:13 41° 245° (WSW) 18:16:06 145.825 - 145.975 CW/USB, Beacon 145.810 USB
Oscar 16 25 Apr 12:17:17 12:18:59 12° 55° (NE) 12:20:42 437.025 USB, Beacon 2401.1428
Oscar 11 25 Apr 12:29:34 12:32:31 18° 296° (WNW) 12:35:29 145.825 FM, Beacon 2401.500 USB
RS-15 25 Apr 12:32:41 12:41:51 29° 18° (NNE) 12:51:03 29.354 - 29.394 USB, Beacon 29.352 USB
FUNcube-1 25 Apr 12:37:35 12:41:35 39° 289° (WNW) 12:45:40 145.950 - 145.970 MHz USB
KITSAT 1 25 Apr 12:38:11 12:45:21 36° 251° (WSW) 12:52:29 435.175 FM
AO-Echo 25 Apr 12:58:57 13:00:04 11° 56° (ENE) 13:01:12 ?
Uribyol 2 25 Apr 13:02:43 13:05:47 16° 59° (ENE) 13:08:51 436.500 FM
HO-68 25 Apr 13:34:04 13:35:00 10° 317° (NW) 13:35:56 435.675 MHz FM
ISS 25 Apr 13:36:04 13:39:10 37° 141° (SE) 13:42:17 145.800 FM
Oscar 19 25 Apr 13:42:58 13:48:00 59° 72° (ENE) 13:53:07 437.125 CW, 437.150 USB
AO-27 25 Apr 13:44:23 13:49:01 35° 66° (ENE) 13:53:41 436.795 MHz FM
Oscar 16 25 Apr 13:52:20 13:57:27 76° 74° (ENE) 14:02:39 437.025 USB, Beacon 2401.1428
ITAMSAT 1 25 Apr 13:53:10 13:57:57 40° 68° (ENE) 14:02:46 435.822 SSB
AO-7 25 Apr 13:53:59 13:54:43 10° 35° (NE) 13:55:26 29.400 - 29.500 MHz
SO-50 25 Apr 13:54:09 13:57:41 23° 113° (ESE) 14:01:14 436.795 FM
Gurwin Techsat 1B 25 Apr 14:14:07 14:18:07 22° 62° (ENE) 14:22:07 435.225 FM
AO-Echo 25 Apr 14:32:52 14:38:01 73° 74° (ENE) 14:43:02 ?
JAS-1B 25 Apr 14:34:53 14:39:39 20° 59° (ENE) 14:43:59 435.800 - 435.900 CW/SSB
Uribyol 2 25 Apr 14:39:29 14:44:38 77° 257° (WSW) 14:49:49 436.500 FM
RS-15 25 Apr 14:45:54 14:56:48 65° 48° (NE) 15:07:54 29.354 - 29.394 USB, Beacon 29.352 USB
TMSAT-1 25 Apr 14:57:05 15:01:53 36° 67° (ENE) 15:06:42 436.925 FM
Uosat F 25 Apr 14:59:48 15:02:37 15° 58° (ENE) 15:05:26 435.120 FM
ISS 25 Apr 15:12:42 15:15:52 40° 339° (NNW) 15:19:04 145.800 FM
AO-27 25 Apr 15:23:55 15:28:32 32° 264° (W) 15:33:10 436.795 MHz FM
Oscar 19 25 Apr 15:24:12 15:27:45 19° 269° (W) 15:31:20 437.125 CW, 437.150 USB
ITAMSAT 1 25 Apr 15:33:12 15:37:34 27° 265° (W) 15:41:57 435.822 SSB
SO-50 25 Apr 15:33:41 15:37:59 45° 311° (NW) 15:42:21 436.795 FM
Oscar 16 25 Apr 15:34:45 15:37:24 14° 271° (W) 15:40:05 437.025 USB, Beacon 2401.1428
AO-7 25 Apr 15:37:44 15:45:11 39° 58° (ENE) 15:52:39 29.400 - 29.500 MHz
UOSAT-12 25 Apr 15:41:10 15:43:59 16° 110° (ESE) 15:46:51 437.025 FM, 437.400 FM
Gurwin Techsat 1B 25 Apr 15:52:30 15:57:42 55° 260° (W) 16:02:56 435.225 FM
OPAL 25 Apr 16:10:08 16:15:21 64° 104° (ESE) 16:20:30 ?
AO-Echo 25 Apr 16:14:29 16:17:16 15° 270° (W) 16:20:02 ?
JAS-1B 25 Apr 16:22:11 16:29:48 82° 255° (WSW) 16:36:12 435.800 - 435.900 CW/SSB
Uosat F 25 Apr 16:35:45 16:40:47 78° 256° (WSW) 16:45:49 435.120 FM
TMSAT-1 25 Apr 16:37:10 16:41:50 31° 265° (W) 16:46:32 436.925 FM
Saudisat 1A 25 Apr 16:40:59 16:42:40 12° 29° (NNE) 16:44:21 436.775 MHz
ISS 25 Apr 16:50:27 16:53:11 23° 359° (N) 16:55:55 145.800 FM
RS-15 25 Apr 16:58:48 17:08:36 40° 251° (WSW) 17:18:41 29.354 - 29.394 USB, Beacon 29.352 USB
SO-50 25 Apr 17:18:31 17:19:44 11° 333° (NNW) 17:20:56 436.795 FM
UOSAT-12 25 Apr 17:19:04 17:23:37 66° 308° (NW) 17:28:16 437.025 FM, 437.400 FM
AO-7 25 Apr 17:29:42 17:37:44 54° 258° (WSW) 17:45:49 29.400 - 29.500 MHz
JAS-2 25 Apr 17:45:16 17:47:02 12° 56° (NE) 17:48:46 435.800 - 435.900 CW/SSB, 435.910 FM
OPAL 25 Apr 17:50:02 17:53:44 20° 302° (WNW) 17:57:25 ?
Hamsat 25 Apr 18:15:39 18:19:41 45° 72° (ENE) 18:23:47 145.90 MHz
JAS-1B 25 Apr 18:17:41 18:21:05 14° 271° (W) 18:24:17 435.800 - 435.900 CW/SSB
Saudisat 1A 25 Apr 18:18:56 18:23:17 54° 51° (NE) 18:27:34 436.775 MHz
ISS 25 Apr 18:27:25 18:30:33 35° 19° (NNE) 18:33:40 145.800 FM
STRAND 1 25 Apr 19:00:04 19:03:38 19° 92° (E) 19:07:12 ?
UOSAT-12 25 Apr 19:02:09 19:04:41 14° 329° (NNW) 19:07:16 437.025 FM, 437.400 FM
JAS-2 25 Apr 19:25:51 19:31:23 81° 74° (ENE) 19:36:37 435.800 - 435.900 CW/SSB, 435.910 FM
Hamsat 25 Apr 19:53:09 19:55:56 17° 269° (W) 19:58:44 145.90 MHz
SO-67 25 Apr 19:55:51 19:59:19 67° 259° (W) 20:02:50 435.3500 MHz FM
Saudisat 1A 25 Apr 19:59:26 20:02:30 19° 249° (WSW) 20:05:31 436.775 MHz
ISS 25 Apr 20:04:06 20:07:21 48° 217° (SW) 20:10:35 145.800 FM
MaSat-1 25 Apr 20:23:03 20:25:22 25° 113° (ESE) 20:27:32 437.345 MHz
HO-68 25 Apr 20:25:13 20:31:30 35° 60° (ENE) 20:37:48 435.675 MHz FM
STRAND 1 25 Apr 20:38:12 20:43:12 56° 289° (WNW) 20:48:10 ?
JAS-2 25 Apr 21:14:52 21:17:08 13° 271° (W) 21:19:21 435.800 - 435.900 CW/SSB, 435.910 FM
Oscar 11 25 Apr 21:49:03 21:53:11 47° 71° (ENE) 21:57:21 145.825 FM, Beacon 2401.500 USB
FUNcube-1 25 Apr 22:00:35 22:03:39 20° 65° (ENE) 22:06:44 145.950 - 145.970 MHz USB
MaSat-1 25 Apr 22:03:02 22:03:44 11° 308° (NW) 22:04:25 437.345 MHz
HO-68 25 Apr 22:12:03 22:18:57 51° 259° (W) 22:25:55 435.675 MHz FM
SO-50 25 Apr 22:23:16 22:27:35 37° 46° (NE) 22:31:57 436.795 FM
Sapphire 25 Apr 22:26:03 22:28:13 12° 102° (ESE) 22:30:24 437.095 MHz 1200 baud AX-25 AFSK
PCSat 25 Apr 23:07:14 23:11:56 31° 110° (ESE) 23:16:40 145.825 MHz
Oscar 11 25 Apr 23:26:47 23:29:38 17° 269° (W) 23:32:30 145.825 FM, Beacon 2401.500 USB
FUNcube-1 25 Apr 23:35:59 23:39:51 37° 262° (W) 23:43:45 145.950 - 145.970 MHz USB
SO-50 26 Apr 00:03:59 00:08:06 32° 244° (WSW) 00:12:15 436.795 FM
Sapphire 26 Apr 00:05:23 00:10:48 86° 120° (ESE) 00:16:15 437.095 MHz 1200 baud AX-25 AFSK
UOSAT-12 26 Apr 00:07:29 00:11:33 27° 42° (NE) 00:15:35 437.025 FM, 437.400 FM
PCSat 26 Apr 00:50:04 00:55:12 43° 309° (NW) 01:00:23 145.825 MHz
KITSAT 1 26 Apr 01:13:22 01:20:08 30° 106° (ESE) 01:26:54 435.175 FM
UOSAT-12 26 Apr 01:47:23 01:51:56 48° 241° (WSW) 01:56:26 437.025 FM, 437.400 FM
OPAL 26 Apr 01:49:51 01:53:29 20° 58° (ENE) 01:57:10 ?
Sapphire 26 Apr 01:51:02 01:54:57 20° 321° (NW) 01:58:53 437.095 MHz 1200 baud AX-25 AFSK
Oscar 19 26 Apr 01:53:56 01:57:32 19° 91° (E) 02:01:05 437.125 CW, 437.150 USB
Oscar 16 26 Apr 02:03:04 02:07:14 24° 93° (E) 02:11:23 437.025 USB, Beacon 2401.1428
ITAMSAT 1 26 Apr 02:06:24 02:08:20 12° 88° (E) 02:10:17 435.822 SSB
PCSat 26 Apr 02:38:30 02:40:08 11° 332° (NNW) 02:41:47 145.825 MHz
AO-Echo 26 Apr 02:39:37 02:42:58 19° 92° (E) 02:46:17 ?
Uribyol 2 26 Apr 02:50:50 02:55:32 34° 97° (E) 03:00:12 436.500 FM
KITSAT 1 26 Apr 03:06:51 03:14:56 68° 307° (NW) 03:23:04 435.175 FM
TMSAT-1 26 Apr 03:13:09 03:15:10 12° 87° (E) 03:17:11 436.925 FM
OPAL 26 Apr 03:26:54 03:31:54 61° 256° (WSW) 03:37:01 ?
Oscar 19 26 Apr 03:32:08 03:37:16 60° 288° (WNW) 03:42:22 437.125 CW, 437.150 USB
AO-27 26 Apr 03:34:30 03:39:43 80° 104° (ESE) 03:44:54 436.795 MHz FM
Oscar 16 26 Apr 03:41:50 03:46:48 46° 291° (WNW) 03:51:45 437.025 USB, Beacon 2401.1428
ITAMSAT 1 26 Apr 03:43:19 03:48:32 87° 285° (WNW) 03:53:43 435.822 SSB
JAS-1B 26 Apr 04:05:34 04:09:46 21° 93° (E) 04:14:10 435.800 - 435.900 CW/SSB
Gurwin Techsat 1B 26 Apr 04:06:57 04:12:10 53° 100° (E) 04:17:20 435.225 FM
AO-Echo 26 Apr 04:17:30 04:22:03 48° 289° (WNW) 04:26:33 ?
Uribyol 2 26 Apr 04:30:22 04:34:58 33° 294° (WNW) 04:39:34 436.500 FM
Uosat F 26 Apr 04:42:18 04:46:36 28° 95° (E) 04:50:52 435.120 FM
MaSat-1 26 Apr 04:44:34 04:45:55 12° 53° (NE) 04:47:21 437.345 MHz
